Bad Axe, MI

8:55 PM EST on February 20, 2017 (GMT -0500)
Huron County Memorial

Weather History for KBAX - February, 2013

Change the Weather History Date:

Tuesday, February 5, 2013

  Actual Average (KP58) Record (KP58)
Temperature  
Mean Temperature 12 °F -  
Max Temperature 25 °F 29 °F 43 °F (2005)
Min Temperature 0 °F 18 °F -6 °F (2009)
Degree Days  
Heating Degree Days 52    
Moisture  
Dew Point 10 °F    
Average Humidity 82    
Maximum Humidity 89    
Minimum Humidity 69    
Precipitation  
Precipitation 0.00 in - - ()
Sea Level Pressure  
Sea Level Pressure 29.84 in    
Wind  
Wind Speed 4 mph (SW)    
Max Wind Speed 15 mph    
Max Gust Speed 24 mph    
Visibility 9 miles    
Events Snow    
Averages and records for this station are not official NWS values.
T = Trace of Precipitation, MM = Missing Value Source: NWS Daily Summary

Daily Weather History Graph

Daily Weather History Graph

Search for Another Location

Airport or City:

Trip Planner

Search our weather history database for the weather conditions in past years. The results will help you decide how hot, cold, wet, or windy it might be!

Date:

Astronomy

Feb. 05, 2013 Rise Set
Actual Time 7:43 AM EST 5:48 PM EST
Civil Twilight 7:13 AM EST 6:18 PM EST
Nautical Twilight 6:39 AM EST 6:53 PM EST
Astronomical Twilight 6:05 AM EST 7:26 PM EST
Moon 3:28 AM EST (2/5) 1:01 PM EST (2/5)
Length of Visible Light 11h 05m
Length of Day
10h 04m
Waning Crescent, 27% of the Moon is Illuminated
Feb 5
Waning Crescent
Feb 10
New
Feb 17
First Quarter
Feb 25
Full
Mar 4
Last Quarter

Hourly Weather History & Observations

Time (EST) Temp. Windchill Dew Point Humidity Pressure Visibility Wind Dir Wind Speed Gust Speed Precip Events Conditions
12:14 AM 1.0 °F - -2.2 °F 86% 29.92 in 10.0 mi Calm Calm - N/A   Clear
12:34 AM 2.1 °F - -1.5 °F 85% 29.92 in 10.0 mi Calm Calm - N/A   Clear
12:54 AM 1.4 °F - -2.2 °F 85% 29.92 in 10.0 mi Calm Calm - N/A   Clear
1:13 AM 2.3 °F - -0.9 °F 86% 29.92 in 10.0 mi Calm Calm - N/A   Clear
1:34 AM 1.9 °F - -1.5 °F 86% 29.91 in 10.0 mi Calm Calm - N/A   Clear
1:54 AM 2.1 °F - -1.3 °F 86% 29.91 in 10.0 mi Calm Calm - N/A   Clear
2:13 AM 2.3 °F - -0.9 °F 86% 29.90 in 10.0 mi Calm Calm - N/A   Clear
2:34 AM 1.9 °F - -1.3 °F 86% 29.90 in 10.0 mi Calm Calm - N/A   Clear
2:54 AM 2.1 °F - -1.1 °F 86% 29.90 in 10.0 mi Calm Calm - N/A   Clear
3:13 AM 2.1 °F - -1.3 °F 86% 29.90 in 10.0 mi Calm Calm - N/A   Clear
3:34 AM 1.4 °F - -2.0 °F 86% 29.90 in 10.0 mi Calm Calm - N/A   Clear
3:54 AM 0.3 °F - -2.9 °F 86% 29.89 in 10.0 mi Calm Calm - N/A   Clear
4:13 AM 0.7 °F - -2.4 °F 87% 29.89 in 10.0 mi Calm Calm - N/A   Clear
4:34 AM -0.2 °F - -3.5 °F 86% 29.89 in 10.0 mi Calm Calm - N/A   Clear
4:54 AM 0.3 °F - -2.7 °F 87% 29.89 in 10.0 mi Calm Calm - N/A   Clear
5:14 AM 0.7 °F - -2.4 °F 87% 29.89 in 10.0 mi Calm Calm - N/A   Clear
5:34 AM 0.7 °F - -2.6 °F 86% 29.88 in 7.0 mi Calm Calm - N/A   Clear
5:54 AM 1.4 °F - -1.7 °F 87% 29.88 in 10.0 mi Calm Calm - N/A   Clear
6:14 AM 3.0 °F -4.4 °F 0.1 °F 88% 29.88 in 10.0 mi SSW 3.5 mph - N/A   Clear
6:34 AM 4.1 °F -3.2 °F 1.4 °F 89% 29.89 in 5.0 mi South 3.5 mph - N/A   Clear
6:54 AM 4.1 °F - 1.4 °F 89% 29.89 in 10.0 mi Calm Calm - N/A   Clear
7:14 AM 4.5 °F - 1.8 °F 89% 29.89 in 7.0 mi Calm Calm - N/A   Clear
7:34 AM 2.7 °F - -0.4 °F 87% 29.88 in 10.0 mi Calm Calm - N/A   Clear
7:54 AM 4.1 °F -3.2 °F 1.2 °F 88% 29.89 in 5.0 mi South 3.5 mph - N/A   Scattered Clouds
8:14 AM 7.9 °F -0.7 °F 5.4 °F 89% 29.89 in 10.0 mi SSW 4.6 mph - N/A   Scattered Clouds
8:34 AM 9.0 °F 0.6 °F 6.3 °F 89% 29.89 in 10.0 mi SW 4.6 mph - N/A   Mostly Cloudy
9:14 AM 11.3 °F 0.7 °F 8.6 °F 89% 29.88 in 10.0 mi SSW 6.9 mph - N/A   Overcast
9:34 AM 12.2 °F 2.9 °F 9.1 °F 88% 29.89 in 10.0 mi SSW 5.8 mph - N/A   Overcast
9:54 AM 13.1 °F 0.9 °F 9.5 °F 86% 29.87 in 10.0 mi SSW 9.2 mph - N/A   Mostly Cloudy
10:14 AM 14.2 °F 2.2 °F 10.4 °F 85% 29.86 in 10.0 mi SSW 9.2 mph - N/A   Overcast
10:34 AM 15.8 °F 6.1 °F 11.1 °F 82% 29.85 in 10.0 mi SSW 6.9 mph - N/A   Overcast
10:54 AM 17.1 °F 5.0 °F 11.3 °F 78% 29.85 in 10.0 mi SSW 10.4 mph - N/A   Overcast
11:14 AM 18.5 °F 6.8 °F 11.3 °F 73% 29.85 in 10.0 mi SSW 10.4 mph - N/A   Overcast
11:34 AM 19.2 °F 8.4 °F 11.8 °F 73% 29.84 in 10.0 mi South 9.2 mph - N/A   Overcast
11:54 AM 20.1 °F 8.8 °F 12.2 °F 71% 29.84 in 10.0 mi SSW 10.4 mph - N/A   Overcast
12:14 PM 20.3 °F 9.8 °F 12.9 °F 73% 29.84 in 10.0 mi SSW 9.2 mph - N/A   Overcast
12:34 PM 20.7 °F 11.0 °F 13.3 °F 73% 29.82 in 10.0 mi SSW 8.1 mph - N/A   Overcast
12:54 PM 21.2 °F 10.1 °F 13.5 °F 72% 29.81 in 10.0 mi SSW 10.4 mph - N/A   Overcast
1:14 PM 22.1 °F 12.0 °F 13.5 °F 69% 29.80 in 10.0 mi SSW 9.2 mph - N/A   Overcast
1:34 PM 22.6 °F 12.6 °F 14.0 °F 69% 29.79 in 10.0 mi South 9.2 mph - N/A   Overcast
1:54 PM 23.7 °F 12.1 °F 14.9 °F 69% 29.78 in 10.0 mi South 12.7 mph - N/A   Overcast
2:14 PM 23.9 °F 12.3 °F 15.4 °F 70% 29.77 in 10.0 mi South 12.7 mph - N/A   Overcast
2:34 PM 23.9 °F 11.7 °F 16.9 °F 75% 29.76 in 4.0 mi South 13.8 mph - N/A Snow Light Snow
2:54 PM 23.5 °F 11.3 °F 17.4 °F 77% 29.76 in 2.0 mi SSW 13.8 mph - N/A Snow Light Snow
3:14 PM 23.7 °F 11.5 °F 18.7 °F 81% 29.75 in 2.0 mi South 13.8 mph - N/A Snow Light Snow
3:34 PM 23.9 °F 12.3 °F 19.2 °F 82% 29.75 in 1.2 mi South 12.7 mph - N/A Snow Light Snow
3:54 PM 23.5 °F 13.0 °F 19.4 °F 84% 29.75 in 1.2 mi SSW 10.4 mph - N/A Snow Light Snow
4:15 PM 23.7 °F 11.0 °F 19.8 °F 85% 29.74 in 2.5 mi South 15.0 mph 18.4 mph N/A Snow Light Snow
4:34 PM 23.9 °F 12.9 °F 19.9 °F 85% 29.74 in 10.0 mi SSW 11.5 mph - N/A   Overcast
4:54 PM 24.1 °F 13.1 °F 19.4 °F 82% 29.75 in 10.0 mi SSW 11.5 mph 17.3 mph N/A   Overcast
5:15 PM 24.3 °F 13.3 °F 19.4 °F 82% 29.75 in 10.0 mi South 11.5 mph - N/A   Overcast
5:34 PM 24.4 °F 14.2 °F 19.4 °F 81% 29.75 in 10.0 mi SSW 10.4 mph 16.1 mph N/A   Overcast
5:54 PM 24.6 °F 15.1 °F 19.9 °F 82% 29.76 in 10.0 mi SSW 9.2 mph - N/A   Overcast
6:15 PM 24.8 °F 15.3 °F 20.1 °F 82% 29.77 in 10.0 mi SW 9.2 mph - N/A Snow Light Snow
6:34 PM 24.8 °F 15.3 °F 20.3 °F 83% 29.77 in 10.0 mi SSW 9.2 mph - N/A   Overcast
6:55 PM 25.0 °F 15.5 °F 20.3 °F 82% 29.78 in 10.0 mi SW 9.2 mph - N/A   Overcast
7:14 PM 25.2 °F 15.1 °F 20.3 °F 82% 29.78 in 10.0 mi SW 10.4 mph - N/A   Overcast
7:34 PM 25.2 °F 15.7 °F 20.3 °F 82% 29.79 in 10.0 mi WSW 9.2 mph - N/A   Overcast
7:55 PM 25.2 °F 16.5 °F 21.2 °F 85% 29.80 in 7.0 mi WSW 8.1 mph - N/A Snow Light Snow
8:14 PM 25.3 °F 15.3 °F 21.9 °F 87% 29.81 in 7.0 mi West 10.4 mph - N/A Snow Light Snow
8:34 PM 25.5 °F 16.2 °F 22.6 °F 89% 29.81 in 7.0 mi West 9.2 mph - N/A Snow Light Snow
8:55 PM 25.7 °F 14.6 °F 22.8 °F 89% 29.82 in 7.0 mi WNW 12.7 mph - N/A Snow Light Snow
9:14 PM 25.3 °F 15.3 °F 21.9 °F 87% 29.84 in 5.0 mi WNW 10.4 mph 18.4 mph N/A Snow Light Snow
9:34 PM 24.8 °F 12.9 °F 21.2 °F 86% 29.85 in 7.0 mi WNW 13.8 mph 18.4 mph N/A Snow Light Snow
10:14 PM 23.9 °F 12.3 °F 19.0 °F 82% 29.87 in 10.0 mi NW 12.7 mph 24.2 mph N/A   Overcast
10:34 PM 23.5 °F 10.8 °F 16.7 °F 75% 29.88 in 10.0 mi NW 15.0 mph - N/A   Overcast
10:54 PM 21.6 °F 10.6 °F 13.8 °F 72% 29.90 in 10.0 mi NNW 10.4 mph - N/A   Scattered Clouds
11:13 PM 20.3 °F 9.0 °F 12.9 °F 73% 29.90 in 10.0 mi NW 10.4 mph - N/A   Clear
11:34 PM 19.4 °F 9.5 °F 12.7 °F 75% 29.91 in 10.0 mi WNW 8.1 mph - N/A   Clear
11:54 PM 19.2 °F 8.4 °F 12.7 °F 76% 29.92 in 10.0 mi NW 9.2 mph - N/A   Clear